GW4807 Weather Reports


Display with metric or nautical units.
time (UTC)temp
F
wind
direction
speed
MPH
gust
MPH
rain 1hr
in
rain 24hr
in
rain mn
in
humidity
%
barometer
mb
20260502163339 59 127 1.0 1.0 0.00 0.00 0.00 52 1013.9
20260502162837 59 165 3.0 5.0 0.00 0.00 0.00 51 1013.8
20260502162333 59 146 0.0 1.0 0.00 0.00 0.00 52 1014.0
20260502161831 58 114 0.0 1.0 0.00 0.00 0.00 56 1013.8
20260502161326 59 267 2.0 2.0 0.00 0.00 0.00 56 1013.8
20260502160825 59 105 2.0 3.0 0.00 0.00 0.00 55 1013.9
20260502160323 58 295 1.0 3.0 0.00 0.00 0.00 56 1013.8
20260502152253 60 168 2.0 2.0 0.00 0.00 0.00 54 1013.7
20260502151750 60 130 1.0 2.0 0.00 0.00 0.00 57 1013.7
20260502151247 59 79 1.0 2.0 0.00 0.00 0.00 60 1013.6
20260502150745 58 322 3.0 3.0 0.00 0.00 0.00 58 1013.7
20260502150241 58 132 2.0 2.0 0.00 0.00 0.00 60 1013.4
20260502130630 46 100 1.0 1.0 0.00 0.00 0.00 93 1012.7
20260502130127 45 76 1.0 1.0 0.00 0.00 0.00 96 1012.8
20260502123613 42 125 0.0 0.0 0.00 0.00 0.00 99 1012.8
20260502123109 41 125 0.0 0.0 0.00 0.00 0.00 99 1012.7
20260502122606 40 112 1.0 1.0 0.00 0.00 0.00 99 1012.6
20260502122103 38 120 0.0 0.0 0.00 0.00 0.00 99 1012.6
20260502121600 38 131 0.0 0.0 0.00 0.00 0.00 99 1012.8
20260502121058 37 127 0.0 0.0 0.00 0.00 0.00 99 1012.4
20260502120554 37 128 0.0 0.0 0.00 0.00 0.00 99 1012.6
20260502115549 36 128 0.0 0.0 0.00 0.00 0.00 99 1012.3
20260502115044 35 131 0.0 0.0 0.00 0.00 0.00 99 1012.3
20260502114541 35 130 0.0 0.0 0.00 0.00 0.00 99 1012.3
20260502114038 35 131 0.0 0.0 0.00 0.00 0.00 99 1012.3
20260502113536 35 131 0.0 0.0 0.00 0.00 0.00 99 1012.2
20260502113034 35 131 0.0 0.0 0.00 0.00 0.00 99 1012.0
20260502112532 35 133 0.0 0.0 0.00 0.00 0.00 99 1012.1
20260502112029 35 130 0.0 0.0 0.00 0.00 0.00 99 1012.0
20260502111526 35 128 0.0 0.0 0.00 0.00 0.00 99 1012.2
20260502111024 35 131 0.0 0.0 0.00 0.00 0.00 99 1011.8
20260502110521 35 131 0.0 0.0 0.00 0.00 0.00 99 1011.8
20260502110019 35 132 0.0 0.0 0.00 0.00 0.00 99 1012.1
20260502105516 35 130 0.0 0.0 0.00 0.00 0.00 99 1011.9
20260502105013 35 133 0.0 0.0 0.00 0.00 0.00 99 1011.8
20260502104510 35 131 0.0 0.0 0.00 0.00 0.00 99 1011.9
20260502104008 35 131 0.0 0.0 0.00 0.00 0.00 99 1011.8
20260502103505 36 131 0.0 0.0 0.00 0.00 0.00 99 1011.7
20260502103002 36 131 0.0 0.0 0.00 0.00 0.00 99 1011.5
20260502102459 36 131 0.0 0.0 0.00 0.00 0.00 99 1011.7
20260502101955 36 131 0.0 0.0 0.00 0.00 0.00 99 1011.5
20260502101454 36 130 0.0 0.0 0.00 0.00 0.00 99 1011.5
20260502100952 36 128 0.0 0.0 0.00 0.00 0.00 99 1011.8
20260502100451 35 126 0.0 0.0 0.00 0.00 0.00 99 1011.8
20260502091425 36 134 0.0 0.0 0.00 0.00 0.00 99 1011.1
20260502090922 36 131 0.0 0.0 0.00 0.00 0.00 99 1011.1
20260502090419 36 131 0.0 0.0 0.00 0.00 0.00 99 1011.3
20260502071314 37 130 0.0 0.0 0.00 0.00 0.00 99 1011.3
20260502070812 38 128 0.0 0.0 0.00 0.00 0.00 99 1011.4
20260502070309 38 131 0.0 0.0 0.00 0.00 0.00 99 1011.5
20260502065808 38 132 0.0 0.0 0.00 0.00 0.00 99 1011.3
20260502065306 38 133 0.0 0.0 0.00 0.00 0.00 99 1011.5
20260502064804 38 129 0.0 0.0 0.00 0.00 0.00 99 1011.3
20260502064301 38 138 0.0 0.0 0.00 0.00 0.00 99 1011.3
20260502063758 38 130 0.0 0.0 0.00 0.00 0.00 98 1011.4
20260502063256 38 129 0.0 0.0 0.00 0.00 0.00 98 1011.4
20260502062753 38 129 0.0 0.0 0.00 0.00 0.00 98 1011.5
20260502062251 39 131 0.0 0.0 0.00 0.00 0.00 98 1011.9
20260502061749 38 132 0.0 0.0 0.00 0.00 0.00 98 1011.8
20260502061248 38 130 0.0 0.0 0.00 0.00 0.00 98 1011.8
20260502060747 39 130 0.0 0.0 0.00 0.00 0.00 98 1012.0
20260502060243 39 130 0.0 0.0 0.00 0.00 0.00 97 1011.8
20260502055741 39 136 0.0 0.0 0.00 0.00 0.00 97 1011.8
20260502055238 39 136 0.0 0.0 0.00 0.00 0.00 97 1011.8
20260502054738 39 131 0.0 0.0 0.00 0.00 0.00 97 1011.7
20260502054235 39 132 0.0 0.0 0.00 0.00 0.00 97 1011.9
20260502053732 39 131 0.0 0.0 0.00 0.00 0.00 96 1011.8
20260502053229 39 131 0.0 0.0 0.00 0.00 0.00 96 1011.7
20260502052727 39 131 0.0 0.0 0.00 0.00 0.00 96 1011.5
20260502052225 39 131 0.0 0.0 0.00 0.00 0.00 96 1011.5
20260502051723 40 132 0.0 0.0 0.00 0.00 0.00 95 1011.5
20260502051221 40 132 0.0 0.0 0.00 0.00 0.00 95 1011.7
20260502050717 40 131 0.0 0.0 0.00 0.00 0.00 95 1011.3
20260502050213 40 132 0.0 0.0 0.00 0.00 0.00 94 1011.8
20260502045710 40 135 0.0 0.0 0.00 0.00 0.00 94 1011.8
20260502045207 40 138 0.0 0.0 0.00 0.00 0.00 93 1011.8
20260502044704 40 142 1.0 1.0 0.00 0.00 0.00 92 1011.5
20260502044200 40 130 0.0 0.0 0.00 0.00 0.00 92 1011.7
20260502043658 40 131 0.0 0.0 0.00 0.00 0.00 92 1011.8
20260502043155 40 131 0.0 0.0 0.00 0.00 0.00 92 1011.5
20260502042655 41 131 0.0 0.0 0.00 0.00 0.00 91 1011.8
20260502042152 41 131 0.0 0.0 0.00 0.00 0.00 91 1011.5
20260502041649 41 131 0.0 0.0 0.00 0.00 0.00 90 1011.7
20260502041146 41 131 0.0 0.0 0.00 0.00 0.00 89 1011.9
20260502040643 41 131 0.0 0.0 0.00 0.00 0.00 89 1012.0
20260502040141 42 131 0.0 0.0 0.00 0.00 0.00 89 1011.8
20260502035636 42 131 0.0 0.0 0.00 0.00 0.00 89 1011.9
20260502035133 42 131 0.0 0.0 0.00 0.00 0.00 87 1011.8
20260502034632 42 131 0.0 0.0 0.00 0.00 0.00 87 1011.8
20260502034130 42 131 0.0 0.0 0.00 0.00 0.00 86 1012.1
20260502033628 43 131 0.0 0.0 0.00 0.00 0.00 86 1012.0
20260502033125 43 131 0.0 0.0 0.00 0.00 0.00 86 1012.2
20260502032620 43 132 0.0 0.0 0.00 0.00 0.00 85 1012.3
20260502032118 43 131 0.0 0.0 0.00 0.00 0.00 84 1012.0
20260502031616 43 132 0.0 0.0 0.00 0.00 0.00 84 1012.1
20260502031113 44 132 0.0 0.0 0.00 0.00 0.00 83 1012.2
20260502030611 44 130 0.0 0.0 0.00 0.00 0.00 82 1012.2
20260502030109 44 131 0.0 0.0 0.00 0.00 0.00 82 1012.2
20260502025605 45 130 0.0 0.0 0.00 0.00 0.00 82 1012.2
20260502025104 45 136 0.0 0.0 0.00 0.00 0.00 82 1012.2
20260502024601 45 156 1.0 1.0 0.00 0.00 0.00 81 1012.2
20260502024059 45 138 0.0 0.0 0.00 0.00 0.00 80 1012.2
20260502023557 45 132 0.0 0.0 0.00 0.00 0.00 79 1012.2
20260502023054 46 130 0.0 0.0 0.00 0.00 0.00 77 1012.0
20260502022550 46 135 0.0 0.0 0.00 0.00 0.00 77 1012.1
20260502022048 46 132 0.0 0.0 0.00 0.00 0.00 75 1012.0
20260502021545 46 135 0.0 0.0 0.00 0.00 0.00 76 1011.8
20260502021042 46 131 0.0 0.0 0.00 0.00 0.00 74 1011.8
20260502020539 47 127 0.0 0.0 0.00 0.00 0.00 74 1011.8
20260502020036 47 138 0.0 0.0 0.00 0.00 0.00 73 1011.4
20260502015534 48 144 0.0 1.0 0.00 0.00 0.00 73 1011.8
20260502015030 48 138 0.0 0.0 0.00 0.00 0.00 72 1011.4
20260502014527 49 131 0.0 0.0 0.00 0.00 0.00 70 1011.3
20260502014024 49 136 0.0 0.0 0.00 0.00 0.00 70 1011.4
20260502013520 49 138 0.0 0.0 0.00 0.00 0.00 68 1011.3
20260502013016 49 131 0.0 0.0 0.00 0.00 0.00 70 1011.2
20260502012514 50 134 0.0 0.0 0.00 0.00 0.00 69 1010.9
20260502012011 50 138 0.0 0.0 0.00 0.00 0.00 68 1010.9
20260502011507 51 140 0.0 0.0 0.00 0.00 0.00 68 1010.9
20260502011004 51 136 0.0 0.0 0.00 0.00 0.00 67 1010.7
20260502010502 52 143 0.0 0.0 0.00 0.00 0.00 65 1010.6
20260502005957 52 141 0.0 0.0 0.00 0.00 0.00 64 1010.6
20260502005455 53 141 0.0 0.0 0.00 0.00 0.00 62 1010.3
20260502004953 53 149 1.0 1.0 0.00 0.00 0.00 62 1010.5
20260502004449 54 145 0.0 1.0 0.00 0.00 0.00 62 1010.4
20260502003946 55 143 0.0 0.0 0.00 0.00 0.00 61 1010.5
20260502003444 56 144 0.0 1.0 0.00 0.00 0.00 57 1010.5
20260502002939 57 141 0.0 0.0 0.00 0.00 0.00 53 1010.2
20260502002437 59 157 1.0 1.0 0.00 0.00 0.00 48 1010.2
20260502001934 60 146 1.0 1.0 0.00 0.00 0.00 48 1010.2
20260502001431 62 137 0.0 0.0 0.00 0.00 0.00 43 1010.1
20260502000929 62 133 0.0 0.0 0.00 0.00 0.00 42 1010.3
20260502000428 62 133 0.0 0.0 0.00 0.00 0.00 40 1010.2
20260501235923 62 127 1.0 1.0 0.00 0.00 0.00 37 1009.9
20260501235419 63 132 0.0 0.0 0.00 0.00 0.00 40 1010.3
20260501234914 63 132 1.0 1.0 0.00 0.00 0.00 40 1010.2
20260501234411 64 131 2.0 3.0 0.00 0.00 0.00 39 1010.1
20260501233910 63 150 1.0 1.0 0.00 0.00 0.00 36 1010.2
20260501233407 64 171 3.0 5.0 0.00 0.00 0.00 36 1010.1
20260501232902 63 139 0.0 0.0 0.00 0.00 0.00 39 1010.0
20260501232400 63 165 1.0 1.0 0.00 0.00 0.00 35 1010.2
20260501231857 66 167 1.0 1.0 0.00 0.00 0.00 36 1010.2
20260501231355 66 146 1.0 1.0 0.00 0.00 0.00 35 1010.3
20260501230853 65 123 0.0 1.0 0.00 0.00 0.00 35 1010.0
20260501230352 66 132 1.0 1.0 0.00 0.00 0.00 39 1010.3
20260501225849 66 187 4.0 5.0 0.00 0.00 0.00 35 1009.8
20260501225347 66 151 2.0 3.0 0.00 0.00 0.00 35 1009.9
20260501224843 66 134 1.0 1.0 0.00 0.00 0.00 35 1009.8
20260501224341 66 150 2.0 2.0 0.00 0.00 0.00 35 1009.8
20260501223837 67 108 1.0 2.0 0.00 0.00 0.00 33 1009.9
20260501223333 68 153 0.0 1.0 0.00 0.00 0.00 37 1009.9
20260501222828 67 147 0.0 1.0 0.00 0.00 0.00 37 1009.9
20260501222326 66 121 1.0 1.0 0.00 0.00 0.00 36 1009.9
20260501221823 67 150 2.0 3.0 0.00 0.00 0.00 36 1009.6
20260501221320 67 165 1.0 2.0 0.00 0.00 0.00 34 1009.9
20260501220818 67 148 1.0 2.0 0.00 0.00 0.00 37 1009.7
20260501220315 68 190 3.0 3.0 0.00 0.00 0.00 33 1009.6
20260501215811 67 145 0.0 1.0 0.00 0.00 0.00 41 1009.7
20260501215307 66 38 2.0 3.0 0.00 0.00 0.00 37 1009.8
20260501214802 66 69 2.0 2.0 0.00 0.00 0.00 35 1010.0
20260501214258 66 126 0.0 1.0 0.00 0.00 0.00 41 1010.0
20260501213754 67 224 4.0 6.0 0.00 0.00 0.00 33 1009.8
20260501213251 67 125 2.0 2.0 0.00 0.00 0.00 35 1009.9
20260501212747 66 215 2.0 3.0 0.00 0.00 0.00 36 1010.2
20260501212244 66 107 1.0 1.0 0.00 0.00 0.00 37 1010.3
20260501211741 68 251 2.0 2.0 0.00 0.00 0.00 34 1010.3
20260501211238 67 177 2.0 2.0 0.00 0.00 0.00 40 1010.3
20260501210735 67 132 2.0 2.0 0.00 0.00 0.00 34 1010.4
20260501210232 66 159 0.0 1.0 0.00 0.00 0.00 34 1010.8
20260501205729 67 158 1.0 1.0 0.00 0.00 0.00 33 1010.6
20260501205225 67 338 2.0 2.0 0.00 0.00 0.00 35 1010.7
20260501204722 68 256 1.0 2.0 0.00 0.00 0.00 38 1010.9
20260501204219 68 225 0.0 1.0 0.00 0.00 0.00 34 1011.1
20260501203715 66 136 0.0 0.0 0.00 0.00 0.00 34 1011.2
20260501203213 66 142 1.0 2.0 0.00 0.00 0.00 34 1011.1
20260501202709 64 116 1.0 1.0 0.00 0.00 0.00 40 1011.7
20260501202207 64 195 3.0 3.0 0.00 0.00 0.00 35 1011.7
20260501201704 64 190 1.0 1.0 0.00 0.00 0.00 42 1011.7
20260501201200 65 166 1.0 2.0 0.00 0.00 0.00 37 1011.5
20260501200657 66 136 3.0 3.0 0.00 0.00 0.00 37 1011.5
20260501200155 66 67 2.0 2.0 0.00 0.00 0.00 33 1011.5
20260501195651 66 184 2.0 3.0 0.00 0.00 0.00 38 1012.1
20260501195147 65 88 1.0 1.0 0.00 0.00 0.00 35 1012.3
20260501194643 65 218 1.0 2.0 0.00 0.00 0.00 37 1012.2
20260501194138 65 111 4.0 8.0 0.00 0.00 0.00 35 1012.0
20260501193636 66 79 2.0 3.0 0.00 0.00 0.00 39 1012.2
20260501193134 66 157 0.0 0.0 0.00 0.00 0.00 35 1012.3
20260501192631 66 322 5.0 7.0 0.00 0.00 0.00 40 1012.3
20260501192128 66 146 1.0 1.0 0.00 0.00 0.00 44 1012.2
20260501191626 65 128 1.0 1.0 0.00 0.00 0.00 39 1012.4
20260501191123 65 219 1.0 2.0 0.00 0.00 0.00 39 1012.4
20260501190619 66 328 2.0 3.0 0.00 0.00 0.00 32 1012.3
20260501190114 65 158 1.0 1.0 0.00 0.00 0.00 40 1012.5
20260501185610 64 174 1.0 2.0 0.00 0.00 0.00 37 1012.5
20260501185106 64 142 2.0 2.0 0.00 0.00 0.00 37 1012.5
20260501184602 64 253 2.0 3.0 0.00 0.00 0.00 42 1012.6
20260501184057 65 168 0.0 1.0 0.00 0.00 0.00 36 1012.8
20260501183555 64 220 2.0 2.0 0.00 0.00 0.00 40 1012.7
20260501183051 64 142 1.0 1.0 0.00 0.00 0.00 33 1012.7
20260501182548 63 114 1.0 1.0 0.00 0.00 0.00 33 1012.5
20260501182045 64 215 1.0 2.0 0.00 0.00 0.00 39 1012.6
20260501181542 62 147 2.0 2.0 0.00 0.00 0.00 36 1012.7
20260501181038 63 116 3.0 5.0 0.00 0.00 0.00 34 1012.5
20260501180537 64 113 1.0 2.0 0.00 0.00 0.00 35 1012.4
20260501180032 64 111 2.0 2.0 0.00 0.00 0.00 44 1012.7
20260501175529 63 160 1.0 2.0 0.00 0.00 0.00 46 1012.8
20260501175026 62 86 2.0 3.0 0.00 0.00 0.00 38 1012.6
20260501174523 61 181 3.0 3.0 0.00 0.00 0.00 41 1012.8
20260501174021 62 173 1.0 1.0 0.00 0.00 0.00 36 1012.6
20260501173518 62 138 2.0 2.0 0.00 0.00 0.00 40 1012.7
20260501173014 61 187 1.0 2.0 0.00 0.00 0.00 42 1012.7
20260501172510 60 131 1.0 2.0 0.00 0.00 0.00 43 1012.8
20260501172006 60 91 1.0 1.0 0.00 0.00 0.00 40 1012.9
20260501171502 60 282 3.0 3.0 0.00 0.00 0.00 40 1013.0
20260501170959 59 60 1.0 1.0 0.00 0.00 0.00 48 1012.9
20260501170455 59 106 2.0 2.0 0.00 0.00 0.00 42 1012.9
20260501165953 58 128 0.0 0.0 0.00 0.00 0.00 42 1013.0
20260501165450 59 0 1.0 2.0 0.00 0.00 0.00 43 1013.0
20260501164948 59 106 0.0 1.0 0.00 0.00 0.00 50 1013.0
20260501164446 58 115 1.0 1.0 0.00 0.00 0.00 44 1013.1
20260501163942 59 97 1.0 2.0 0.00 0.00 0.00 46 1013.0
20260501163438 59 109 3.0 3.0 0.00 0.00 0.00 41 1013.0